Location: Great Falls
(47.5000°N, 111.3000°W)
Time: 16:13:45
(UTC-06:00)

N. Korean satellite - Visible Passes

Search period start: 13 October 2019 00:00
Search period end: 23 October 2019 00:00
Orbit: 455 x 508 km, 97.2° (Epoch: 13 October)

Date Brightness Start Highest point End Pass type
(mag) Time Alt. Az. Time Alt. Az. Time Alt. Az.
13 Oct 9.9 06:31:02 10° NE 06:33:30 18° E 06:36:00 10° SE visible
15 Oct 9.9 19:26:07 10° SW 19:28:28 17° W 19:30:49 10° NW visible
16 Oct 9.0 06:48:02 10° NE 06:51:09 28° E 06:54:18 10° SSE visible
17 Oct 10.1 06:23:34 10° NE 06:25:41 15° E 06:27:49 10° SE visible
18 Oct 10.5 19:45:10 10° WSW 19:46:07 11° W 19:47:04 10° WNW visible
19 Oct 8.0 07:05:15 10° NNE 07:08:44 45° E 07:12:14 10° S visible
19 Oct 9.6 19:17:56 10° SW 19:20:35 21° W 19:23:17 10° NW visible
20 Oct 9.4 06:40:22 10° NE 06:43:19 23° E 06:46:17 10° SSE visible
20 Oct 8.1 18:51:53 10° S 18:55:09 41° W 18:58:28 10° NNW visible
21 Oct 10.3 06:16:12 10° ENE 06:17:49 12° E 06:19:27 10° ESE visible
22 Oct 10.1 19:36:25 10° WSW 19:38:12 13° W 19:39:59 10° WNW visible
